Flag for Germany Weather past 2 weeks in Weißenfels, Saxony-Anhalt, Germany

Now
57 °F

Scattered clouds.


Feels Like: 57 °F
Forecast: 67 / 92 °F
Wind: 2 mph from Northeast

Location: Leipzig-Schkeuditz

Current Time: Aug 3, 2015 at 7:28:15 AM

Latest Report: Aug 3, 2015 at 6:00 AM


Visibility: 31 mi

Pressure: 30.10 "Hg

Humidity: 78%

Dew point: 50 °F

Location of WeißenfelsLocation

Historic Weather in Weißenfels — Graph

°F

Weißenfels temperature yesterday

Maximum temperature yesterday: 83 °F (at 5:00 PM)
Minimum temperature yesterday: 54 °F (at 6:00 AM)
Average temperature yesterday: 73 °F

Past Weeks' High & Low Weather Summary

 TemperatureHumidityPressure
High88 °F (Jul 22, 6:00 PM)94% (Jul 21, 3:00 AM)30.12 "Hg (Jul 21, 3:00 AM)
Low48 °F (Jul 31, 6:00 AM)24% (Aug 2, 3:00 PM)29.59 "Hg (Jul 27, 2:00 PM)
Average67 °F60%29.88 "Hg
* Reported Jul 19 7:00 AM — Aug 3 6:00 AM, Weißenfels, Weather by CustomWeather, © 2015

Note: Actual official high and low records may vary slightly from our data, if they occured in-between our weather recording intervals... More about our weather records

Advertising

Weißenfels weather history for previous 24 hours

 ConditionsComfort  
Time TempWeatherWind HumidityBarometerVisibility
6:00 AM
Mon, Aug 3
57 °FScattered clouds.2 mph78%30.10 "Hg31 mi
5:00 AM58 °FPassing clouds.2 mph76%30.09 "Hg31 mi
4:00 AM60 °FPassing clouds.2 mph74%30.10 "Hg31 mi
3:00 AM60 °FClear.2 mph70%30.10 "Hg31 mi
2:00 AM64 °FClear.2 mph61%30.11 "Hg31 mi
1:00 AM65 °FPassing clouds.2 mph62%30.12 "Hg31 mi
10:00 PM
Sun, Aug 2
71 °FPassing clouds.2 mph42%30.09 "Hg37 mi
9:00 PM75 °FPassing clouds.2 mph33%30.08 "Hg37 mi
8:00 PM80 °FPartly sunny.2 mph27%30.07 "Hg37 mi
7:00 PM82 °FOvercast.2 mph25%30.07 "Hg31 mi
6:00 PM83 °FPartly sunny.2 mph24%30.07 "Hg31 mi
5:00 PM83 °FPartly sunny.2 mph24%30.07 "Hg31 mi
4:00 PM83 °FScattered clouds.3 mph24%30.08 "Hg28 mi
3:00 PM82 °FScattered clouds.3 mph24%30.09 "Hg25 mi
2:00 PM82 °FPassing clouds.2 mph26%30.10 "Hg25 mi
1:00 PM80 °FScattered clouds.3 mph30%30.10 "Hg25 mi
12:00 PM78 °FScattered clouds.3 mph37%30.11 "Hg25 mi
11:00 AM75 °FScattered clouds.3 mph42%30.10 "Hg25 mi
10:00 AM71 °FPassing clouds.2 mph50%30.10 "Hg28 mi
9:00 AM65 °FPassing clouds.5 mph59%30.09 "Hg31 mi
8:00 AM61 °FPassing clouds.2 mph70%30.08 "Hg31 mi
7:00 AM58 °FScattered clouds.3 mph75%30.06 "Hg31 mi
Weather by CustomWeather, © 2015

See weather overviewHow to use our weather pages